Time,TemperatureF,DewpointF,PressureIn,WindDirection,WindDirectionDegrees,WindSpeedMPH,WindSpeedGustMPH,Humidity,HourlyPrecipIn,Conditions,Clouds,dailyrainin,SoftwareType,DateUTC
2013-07-07 00:01:00,80.0,-99.9,30.08,SE,139,17.0,18.0,-999,-99.99,,,-99.99,,2013-07-07 05:01:00,
2013-07-07 00:11:00,80.0,-99.9,30.08,SE,141,15.0,17.0,-999,-99.99,,,-99.99,,2013-07-07 05:11:00,
2013-07-07 00:21:00,80.0,-99.9,30.08,SE,141,15.0,17.0,-999,-99.99,,,-99.99,,2013-07-07 05:21:00,
2013-07-07 00:32:00,80.0,-99.9,30.08,SSE,148,14.0,17.0,-999,-99.99,,,-99.99,,2013-07-07 05:32:00,
2013-07-07 00:41:00,79.0,-99.9,30.07,SE,146,15.0,18.0,-999,-99.99,,,-99.99,,2013-07-07 05:41:00,
2013-07-07 00:51:00,79.0,-99.9,30.07,SE,146,16.0,18.0,-999,-99.99,,,-99.99,,2013-07-07 05:51:00,
2013-07-07 01:01:00,79.0,-99.9,30.07,SSE,154,17.0,19.0,-999,-99.99,,,-99.99,,2013-07-07 06:01:00,
2013-07-07 01:11:00,79.0,-99.9,30.07,SSE,153,15.0,18.0,-999,-99.99,,,-99.99,,2013-07-07 06:11:00,
2013-07-07 01:32:00,79.0,-99.9,30.06,SSE,152,14.0,17.0,-999,-99.99,,,-99.99,,2013-07-07 06:32:00,
2013-07-07 01:43:00,79.0,-99.9,30.06,SSE,151,15.0,17.0,-999,-99.99,,,-99.99,,2013-07-07 06:43:00,
2013-07-07 01:52:00,79.0,-99.9,30.06,SSE,156,15.0,16.0,-999,-99.99,,,-99.99,,2013-07-07 06:52:00,
2013-07-07 02:02:00,79.0,-99.9,30.06,SSE,154,16.0,18.0,-999,-99.99,,,-99.99,,2013-07-07 07:02:00,
2013-07-07 02:11:00,78.0,-99.9,30.06,South,183,17.0,20.0,-999,-99.99,,,-99.99,,2013-07-07 07:11:00,
2013-07-07 02:34:00,74.0,-99.9,30.06,South,172,4.0,5.0,-999,-99.99,,,-99.99,,2013-07-07 07:34:00,
2013-07-07 02:44:00,74.0,-99.9,30.05,South,169,4.0,4.0,-999,-99.99,,,-99.99,,2013-07-07 07:44:00,
2013-07-07 02:53:00,75.0,-99.9,30.05,SE,140,2.0,2.0,-999,-99.99,,,-99.99,,2013-07-07 07:53:00,
2013-07-07 03:03:00,76.0,-99.9,30.05,ESE,108,2.0,3.0,-999,-99.99,,,-99.99,,2013-07-07 08:03:00,
2013-07-07 03:12:00,76.0,-99.9,30.05,South,175,2.0,3.0,-999,-99.99,,,-99.99,,2013-07-07 08:12:00,
2013-07-07 03:34:00,77.0,-99.9,30.05,SSW,203,3.0,6.0,-999,-99.99,,,-99.99,,2013-07-07 08:34:00,
2013-07-07 03:44:00,77.0,-99.9,30.05,SSW,211,4.0,7.0,-999,-99.99,,,-99.99,,2013-07-07 08:44:00,
2013-07-07 03:53:00,77.0,-99.9,30.05,SSW,192,5.0,7.0,-999,-99.99,,,-99.99,,2013-07-07 08:53:00,
2013-07-07 04:02:00,78.0,-99.9,30.05,South,185,3.0,5.0,-999,-99.99,,,-99.99,,2013-07-07 09:02:00,
2013-07-07 04:12:00,78.0,-99.9,30.05,South,183,4.0,6.0,-999,-99.99,,,-99.99,,2013-07-07 09:12:00,
2013-07-07 04:22:00,78.0,-99.9,30.05,South,183,4.0,6.0,-999,-99.99,,,-99.99,,2013-07-07 09:22:00,
2013-07-07 04:34:00,78.0,-99.9,30.05,SSE,165,4.0,6.0,-999,-99.99,,,-99.99,,2013-07-07 09:34:00,
2013-07-07 04:43:00,78.0,-99.9,30.05,SE,146,5.0,5.0,-999,-99.99,,,-99.99,,2013-07-07 09:43:00,
2013-07-07 04:53:00,78.0,-99.9,30.05,SSE,164,3.0,4.0,-999,-99.99,,,-99.99,,2013-07-07 09:53:00,
2013-07-07 05:03:00,78.0,-99.9,30.05,SSE,160,2.0,4.0,-999,-99.99,,,-99.99,,2013-07-07 10:03:00,
2013-07-07 05:12:00,78.0,-99.9,30.05,SE,132,3.0,4.0,-999,-99.99,,,-99.99,,2013-07-07 10:12:00,
2013-07-07 05:32:00,79.0,-99.9,30.05,SE,129,4.0,6.0,-999,-99.99,,,-99.99,,2013-07-07 10:32:00,
2013-07-07 05:43:00,79.0,-99.9,30.05,SE,136,5.0,6.0,-999,-99.99,,,-99.99,,2013-07-07 10:43:00,
2013-07-07 05:52:00,79.0,-99.9,30.06,SE,126,5.0,6.0,-999,-99.99,,,-99.99,,2013-07-07 10:52:00,
2013-07-07 06:02:00,79.0,-99.9,30.06,ESE,117,3.0,4.0,-999,-99.99,,,-99.99,,2013-07-07 11:02:00,
2013-07-07 06:12:00,79.0,-99.9,30.06,SE,127,4.0,5.0,-999,-99.99,,,-99.99,,2013-07-07 11:12:00,
2013-07-07 06:34:00,78.0,-99.9,30.06,ENE,68,4.0,5.0,-999,-99.99,,,-99.99,,2013-07-07 11:34:00,
2013-07-07 06:43:00,78.0,-99.9,30.07,East,81,5.0,5.0,-999,-99.99,,,-99.99,,2013-07-07 11:43:00,
2013-07-07 06:53:00,78.0,-99.9,30.07,ENE,77,4.0,5.0,-999,-99.99,,,-99.99,,2013-07-07 11:53:00,
2013-07-07 07:02:00,78.0,-99.9,30.08,East,79,5.0,6.0,-999,-99.99,,,-99.99,,2013-07-07 12:02:00,
2013-07-07 07:12:00,79.0,-99.9,30.08,East,84,6.0,6.0,-999,-99.99,,,-99.99,,2013-07-07 12:12:00,
2013-07-07 07:34:00,79.0,-99.9,30.08,East,90,5.0,7.0,-999,-99.99,,,-99.99,,2013-07-07 12:34:00,
2013-07-07 07:43:00,79.0,-99.9,30.08,East,92,6.0,7.0,-999,-99.99,,,-99.99,,2013-07-07 12:43:00,
2013-07-07 07:52:00,79.0,-99.9,30.09,East,92,6.0,8.0,-999,-99.99,,,-99.99,,2013-07-07 12:52:00,
2013-07-07 08:03:00,79.0,-99.9,30.09,East,93,7.0,9.0,-999,-99.99,,,-99.99,,2013-07-07 13:03:00,
2013-07-07 08:12:00,79.0,-99.9,30.09,East,92,9.0,10.0,-999,-99.99,,,-99.99,,2013-07-07 13:12:00,
2013-07-07 08:34:00,79.0,-99.9,30.09,East,87,9.0,9.0,-999,-99.99,,,-99.99,,2013-07-07 13:34:00,
2013-07-07 08:43:00,79.0,-99.9,30.10,East,86,9.0,11.0,-999,-99.99,,,-99.99,,2013-07-07 13:43:00,
2013-07-07 08:52:00,79.0,-99.9,30.10,East,87,10.0,11.0,-999,-99.99,,,-99.99,,2013-07-07 13:52:00,
2013-07-07 09:02:00,79.0,-99.9,30.10,East,88,10.0,11.0,-999,-99.99,,,-99.99,,2013-07-07 14:02:00,
2013-07-07 09:12:00,79.0,-99.9,30.11,East,91,10.0,10.0,-999,-99.99,,,-99.99,,2013-07-07 14:12:00,
2013-07-07 09:34:00,79.0,-99.9,30.11,East,101,9.0,10.0,-999,-99.99,,,-99.99,,2013-07-07 14:34:00,
2013-07-07 09:43:00,80.0,-99.9,30.11,ESE,108,8.0,9.0,-999,-99.99,,,-99.99,,2013-07-07 14:43:00,
2013-07-07 09:53:00,80.0,-99.9,30.11,ESE,112,8.0,9.0,-999,-99.99,,,-99.99,,2013-07-07 14:53:00,
2013-07-07 10:02:00,80.0,-99.9,30.11,ESE,120,8.0,8.0,-999,-99.99,,,-99.99,,2013-07-07 15:02:00,
2013-07-07 10:12:00,80.0,-99.9,30.11,ESE,122,7.0,7.0,-999,-99.99,,,-99.99,,2013-07-07 15:12:00,
2013-07-07 10:22:00,80.0,-99.9,30.11,ESE,122,7.0,7.0,-999,-99.99,,,-99.99,,2013-07-07 15:22:00,
2013-07-07 10:34:00,77.0,-99.9,30.12,WSW,255,4.0,7.0,-999,-99.99,,,-99.99,,2013-07-07 15:34:00,
2013-07-07 10:43:00,77.0,-99.9,30.12,West,274,5.0,8.0,-999,-99.99,,,-99.99,,2013-07-07 15:43:00,
2013-07-07 10:52:00,76.0,-99.9,30.12,West,264,8.0,11.0,-999,-99.99,,,-99.99,,2013-07-07 15:52:00,
2013-07-07 11:02:00,76.0,-99.9,30.12,WSW,247,10.0,15.0,-999,-99.99,,,-99.99,,2013-07-07 16:02:00,
2013-07-07 11:11:00,76.0,-99.9,30.13,SW,228,11.0,20.0,-999,-99.99,,,-99.99,,2013-07-07 16:11:00,
2013-07-07 11:23:00,76.0,-99.9,30.13,SW,228,11.0,20.0,-999,-99.99,,,-99.99,,2013-07-07 16:23:00,
2013-07-07 11:43:00,74.0,-99.9,30.13,SE,128,6.0,10.0,-999,-99.99,,,-99.99,,2013-07-07 16:43:00,
2013-07-07 11:53:00,74.0,-99.9,30.13,East,94,9.0,11.0,-999,-99.99,,,-99.99,,2013-07-07 16:53:00,
2013-07-07 12:02:00,74.0,-99.9,30.13,SE,142,4.0,10.0,-999,-99.99,,,-99.99,,2013-07-07 17:02:00,
2013-07-07 12:12:00,75.0,-99.9,30.13,South,187,2.0,3.0,-999,-99.99,,,-99.99,,2013-07-07 17:12:00,
2013-07-07 12:34:00,75.0,-99.9,30.13,WSW,255,2.0,3.0,-999,-99.99,,,-99.99,,2013-07-07 17:34:00,
2013-07-07 12:43:00,75.0,-99.9,30.13,West,262,2.0,2.0,-999,-99.99,,,-99.99,,2013-07-07 17:43:00,
2013-07-07 12:53:00,76.0,-99.9,30.13,West,270,1.0,2.0,-999,-99.99,,,-99.99,,2013-07-07 17:53:00,
2013-07-07 13:02:00,76.0,-99.9,30.13,NNW,342,2.0,6.0,-999,-99.99,,,-99.99,,2013-07-07 18:02:00,
2013-07-07 13:12:00,76.0,-99.9,30.13,NNW,334,4.0,4.0,-999,-99.99,,,-99.99,,2013-07-07 18:12:00,
2013-07-07 13:22:00,76.0,-99.9,30.13,NNW,334,4.0,4.0,-999,-99.99,,,-99.99,,2013-07-07 18:22:00,
2013-07-07 13:33:00,77.0,-99.9,30.13,NW,316,4.0,4.0,-999,-99.99,,,-99.99,,2013-07-07 18:33:00,
2013-07-07 13:43:00,77.0,-99.9,30.13,WNW,302,4.0,4.0,-999,-99.99,,,-99.99,,2013-07-07 18:43:00,
2013-07-07 13:53:00,77.0,-99.9,30.13,NW,317,4.0,4.0,-999,-99.99,,,-99.99,,2013-07-07 18:53:00,
2013-07-07 14:01:00,78.0,-99.9,30.12,NW,325,3.0,4.0,-999,-99.99,,,-99.99,,2013-07-07 19:01:00,
2013-07-07 14:22:00,78.0,-99.9,30.12,NNW,341,2.0,3.0,-999,-99.99,,,-99.99,,2013-07-07 19:22:00,
2013-07-07 14:43:00,79.0,-99.9,30.11,NE,45,2.0,4.0,-999,-99.99,,,-99.99,,2013-07-07 19:43:00,
2013-07-07 14:54:00,79.0,-99.9,30.11,East,85,3.0,5.0,-999,-99.99,,,-99.99,,2013-07-07 19:54:00,
2013-07-07 15:02:00,79.0,-99.9,30.11,ESE,104,6.0,6.0,-999,-99.99,,,-99.99,,2013-07-07 20:02:00,
2013-07-07 15:11:00,79.0,-99.9,30.11,East,100,5.0,6.0,-999,-99.99,,,-99.99,,2013-07-07 20:11:00,
2013-07-07 15:34:00,80.0,-99.9,30.10,East,81,4.0,6.0,-999,-99.99,,,-99.99,,2013-07-07 20:34:00,
2013-07-07 15:42:00,80.0,-99.9,30.10,ESE,111,5.0,6.0,-999,-99.99,,,-99.99,,2013-07-07 20:42:00,
2013-07-07 15:53:00,81.0,-99.9,30.10,SE,134,10.0,11.0,-999,-99.99,,,-99.99,,2013-07-07 20:53:00,
2013-07-07 16:02:00,81.0,-99.9,30.09,SE,134,10.0,11.0,-999,-99.99,,,-99.99,,2013-07-07 21:02:00,
2013-07-07 16:12:00,81.0,-99.9,30.09,SE,134,10.0,11.0,-999,-99.99,,,-99.99,,2013-07-07 21:12:00,
2013-07-07 16:22:00,81.0,-99.9,30.09,SE,141,8.0,10.0,-999,-99.99,,,-99.99,,2013-07-07 21:22:00,
2013-07-07 16:44:00,81.0,-99.9,30.09,SE,142,9.0,10.0,-999,-99.99,,,-99.99,,2013-07-07 21:44:00,
2013-07-07 16:53:00,81.0,-99.9,30.09,SE,140,8.0,10.0,-999,-99.99,,,-99.99,,2013-07-07 21:53:00,
2013-07-07 17:02:00,81.0,-99.9,30.10,SE,144,6.0,9.0,-999,-99.99,,,-99.99,,2013-07-07 22:02:00,
2013-07-07 17:11:00,81.0,-99.9,30.10,SSE,148,8.0,11.0,-999,-99.99,,,-99.99,,2013-07-07 22:11:00,
2013-07-07 17:44:00,81.0,-99.9,30.10,SE,144,8.0,9.0,-999,-99.99,,,-99.99,,2013-07-07 22:44:00,
2013-07-07 17:54:00,81.0,-99.9,30.10,SE,143,9.0,10.0,-999,-99.99,,,-99.99,,2013-07-07 22:54:00,
2013-07-07 18:02:00,81.0,-99.9,30.09,SE,136,8.0,10.0,-999,-99.99,,,-99.99,,2013-07-07 23:02:00,
2013-07-07 18:12:00,81.0,-99.9,30.09,SE,135,8.0,9.0,-999,-99.99,,,-99.99,,2013-07-07 23:12:00,
2013-07-07 18:22:00,81.0,-99.9,30.09,SE,135,8.0,9.0,-999,-99.99,,,-99.99,,2013-07-07 23:22:00,
2013-07-07 18:43:00,81.0,-99.9,30.09,SE,130,8.0,9.0,-999,-99.99,,,-99.99,,2013-07-07 23:43:00,
2013-07-07 18:53:00,81.0,-99.9,30.09,SE,130,8.0,9.0,-999,-99.99,,,-99.99,,2013-07-07 23:53:00,
2013-07-07 19:22:00,81.0,-99.9,30.09,SE,134,8.0,8.0,-999,-99.99,,,-99.99,,2013-07-08 00:22:00,
2013-07-07 19:33:00,81.0,-99.9,30.10,SE,135,7.0,7.0,-999,-99.99,,,-99.99,,2013-07-08 00:33:00,
2013-07-07 19:43:00,81.0,-99.9,30.10,SE,135,7.0,7.0,-999,-99.99,,,-99.99,,2013-07-08 00:43:00,
2013-07-07 19:53:00,81.0,-99.9,30.11,SE,144,5.0,6.0,-999,-99.99,,,-99.99,,2013-07-08 00:53:00,
2013-07-07 20:01:00,81.0,-99.9,30.11,SSE,152,5.0,6.0,-999,-99.99,,,-99.99,,2013-07-08 01:01:00,
2013-07-07 20:11:00,81.0,-99.9,30.11,SSE,153,5.0,6.0,-999,-99.99,,,-99.99,,2013-07-08 01:11:00,
2013-07-07 20:32:00,81.0,-99.9,30.12,SSE,150,4.0,4.0,-999,-99.99,,,-99.99,,2013-07-08 01:32:00,
2013-07-07 20:53:00,81.0,-99.9,30.12,SE,144,3.0,4.0,-999,-99.99,,,-99.99,,2013-07-08 01:53:00,
2013-07-07 21:03:00,81.0,-99.9,30.12,SE,141,3.0,4.0,-999,-99.99,,,-99.99,,2013-07-08 02:03:00,
2013-07-07 21:33:00,81.0,-99.9,30.13,SE,127,4.0,5.0,-999,-99.99,,,-99.99,,2013-07-08 02:33:00,
2013-07-07 21:43:00,81.0,-99.9,30.13,ESE,120,5.0,11.0,-999,-99.99,,,-99.99,,2013-07-08 02:43:00,
2013-07-07 22:02:00,80.0,-99.9,30.14,ESE,119,7.0,7.0,-999,-99.99,,,-99.99,,2013-07-08 03:02:00,
2013-07-07 22:12:00,81.0,-99.9,30.14,SE,127,6.0,6.0,-999,-99.99,,,-99.99,,2013-07-08 03:12:00,
2013-07-07 22:34:00,80.0,-99.9,30.14,SE,130,6.0,6.0,-999,-99.99,,,-99.99,,2013-07-08 03:34:00,
2013-07-07 22:52:00,80.0,-99.9,30.14,SE,125,4.0,5.0,-999,-99.99,,,-99.99,,2013-07-08 03:52:00,
2013-07-07 23:02:00,80.0,-99.9,30.15,SE,129,4.0,4.0,-999,-99.99,,,-99.99,,2013-07-08 04:02:00,
2013-07-07 23:12:00,80.0,-99.9,30.15,SE,137,3.0,4.0,-999,-99.99,,,-99.99,,2013-07-08 04:12:00,
2013-07-07 23:22:00,80.0,-99.9,30.15,SE,137,3.0,4.0,-999,-99.99,,,-99.99,,2013-07-08 04:22:00,
2013-07-07 23:33:00,80.0,-99.9,30.15,SSE,167,4.0,5.0,-999,-99.99,,,-99.99,,2013-07-08 04:33:00,
2013-07-07 23:42:00,80.0,-99.9,30.15,South,174,4.0,5.0,-999,-99.99,,,-99.99,,2013-07-08 04:42:00,
2013-07-07 23:53:00,80.0,-99.9,30.15,South,171,4.0,4.0,-999,-99.99,,,-99.99,,2013-07-08 04:53:00,